Flag for U.S.A. Weather past 2 weeks in Fairbanks, Alaska, U.S.A.

27 °F


Feels Like: N/A
Forecast: 16 / 25 °F
Wind: N/A

Location: Wainwright U. S. Army Airfield

Current Time: Nov 26, 2015 at 2:40:20 PM

Latest Report: Nov 26, 2015 at 1:58 PM

Visibility: N/A

Pressure: 29.63 "Hg

Humidity: 97%

Dew point: 27 °F

Location of FairbanksLocation

Historic Weather in Fairbanks — Graph


Fairbanks temperature yesterday

Maximum temperature yesterday: 32 °F (at 11:58 PM)
Minimum temperature yesterday: 20 °F (at 6:58 PM)
Average temperature yesterday: 25 °F

Past Weeks' High & Low Weather Summary

High32 °F (Nov 25, 11:58 PM)100% (Nov 24, 11:03 PM)30.30 "Hg (Nov 24, 11:03 PM)
Low-24 °F (Nov 19, 4:58 AM)75% (Nov 15, 4:58 AM)29.13 "Hg (Nov 12, 7:03 AM)
Average4 °F86%29.78 "Hg
* Reported Nov 11 12:58 PM — Nov 26 12:58 PM, Fairbanks, Weather by CustomWeather, © 2015

Note: Actual official high and low records may vary slightly from our data, if they occured in-between our weather recording intervals... More about our weather records


Fairbanks weather history for previous 24 hours

Time TempWeatherWind HumidityBarometerVisibility
12:58 PM
Thu, Nov 26
27 °FLight snow. Ice fog.No wind97%29.61 "Hg6 mi
12:03 PM27 °FOvercast.No wind100%29.58 "Hg10 mi
11:58 AM27 °FMore clouds than sun.No wind100%29.60 "Hg10 mi
11:03 AM27 °FLight snow. Ice fog.No wind100%29.58 "Hg1 mi
10:58 AM27 °FLight snow. Ice fog.No wind97%29.60 "Hg1 mi
9:58 AM26 °FLight snow. Low clouds.No wind97%29.60 "Hg7 mi
8:58 AM26 °FLight snow. Ice fog.No wind96%29.60 "Hg5 mi
7:58 AM26 °FLight snow. Ice fog.No wind96%29.60 "Hg6 mi
7:04 AM27 °FLight snow. Low clouds.2 mph100%29.58 "Hg9 mi
5:58 AM29 °FOvercast.5 mph96%29.60 "Hg10 mi
4:58 AM31 °FOvercast.2 mph96%29.59 "Hg10 mi
3:58 AM30 °FOvercast.No wind97%29.59 "Hg10 mi
2:58 AM30 °FOvercast.No wind96%29.58 "Hg10 mi
1:58 AM30 °FOvercast.2 mph96%29.59 "Hg10 mi
12:58 AM31 °FMostly cloudy.No wind95%29.58 "Hg10 mi
11:58 PM
Wed, Nov 25
32 °FOvercast.2 mph91%29.59 "Hg10 mi
10:58 PM30 °FOvercast.9 mph99%29.60 "Hg10 mi
9:58 PM27 °FOvercast.10 mph98%29.63 "Hg10 mi
8:58 PM25 °FOvercast.6 mph99%29.65 "Hg10 mi
7:58 PM21 °FOvercast.No wind96%29.68 "Hg9 mi
6:58 PM20 °FOvercast.No wind96%29.72 "Hg9 mi
5:58 PM21 °FClear.No wind96%29.75 "Hg8 mi
4:58 PM20 °FIce fog.No wind97%29.79 "Hg4 mi
3:58 PM24 °FClear.No wind98%29.80 "Hg10 mi
2:58 PM24 °FPartly sunny.2 mph97%29.83 "Hg10 mi
Weather by CustomWeather, © 2015

See weather overviewHow to use our weather pages